• Join FlightAware (Why Join?)
  • Login
  • US Flag 
01:09AM EST


 

Airport Tracker/Info


-or-


 

Live Flight TrackerFlight Track Log ✈ TMC426 ✈ 12-May-2013 ✈ KDTW - KMSP

Flight Track Log - Related Links

Times and Time Zones

All times are in EDT time to prevent confusion due to time zone crossing. See the TMC426 flight status page for this flight to view local times or setup timezone preferences in your user account.

Time Position Orientation Groundspeed Altitude Reporting Facility
EDT Latitude Longitude Course Direction KTS MPH feet Rate Location/Type
03:19PM 42.2036 -83.3556 208° Southwest 163 188 1,400  Level Cleveland Center
03:20PM 42.1889 -83.3661 208° Southwest 185 213 2,800 3,840 Climbing Cleveland Center
03:20PM 42.1522 -83.4150 225° Southwest 223 257 6,500 4,140 Climbing Cleveland Center
03:21PM 42.1611 -83.4742 281° West 216 249 10,100 4,380 Climbing Cleveland Center
03:22PM 42.1756 -83.4831 335° Northwest 223 257 11,400 2,700 Climbing Cleveland Center
03:22PM 42.2256 -83.4797 North 260 299 12,800 900 Climbing Cleveland Center
03:23PM 42.3092 -83.4725 North 282 325 13,000 60 Climbing Cleveland Center
03:24PM 42.3950 -83.4594 North 304 350 13,000 1,020 Level Cleveland Center
03:25PM 42.4767 -83.4436 North 314 361 15,100 2,760 Climbing Cleveland Center
03:26PM 42.5731 -83.4281 North 324 373 18,600 3,480 Climbing Cleveland Center
03:27PM 42.6692 -83.4128 North 342 394 22,100 2,160 Climbing Cleveland Center
03:28PM 42.7697 -83.3947 North 353 406 23,000 1,800 Climbing Cleveland Center
03:29PM 42.8744 -83.3739 North 366 421 25,700 2,280 Climbing Cleveland Center
03:30PM 42.9789 -83.3672 North 371 427 27,600 1,980 Climbing Cleveland Center
03:31PM 43.0847 -83.3833 354° North 371 427 29,700 1,260 Climbing Cleveland Center
03:32PM 43.1833 -83.4419 337° Northwest 371 427 30,200 1,080 Climbing Cleveland Center
03:33PM 43.2861 -83.5064 335° Northwest 385 443 31,900 1,560 Climbing Cleveland Center
03:34PM 43.3844 -83.5739 333° Northwest 392 451 33,400 1,320 Climbing Cleveland Center
03:35PM 43.4739 -83.6500 328° Northwest 392 451 34,600 960 Climbing Cleveland Center
03:38PM 43.5717 -83.9369 295° West 372 428 36,600 840 Climbing Minneapolis Center
03:39PM 43.6117 -84.0989 289° West 373 429 37,600 660 Climbing Minneapolis Center
03:40PM 43.6458 -84.2331 289° West 372 428 38,000 180 Climbing Minneapolis Center
03:41PM 43.6803 -84.3717 289° West 378 435 38,000  Level Minneapolis Center
03:42PM 43.7158 -84.5125 289° West 387 445 38,000  Level Minneapolis Center
03:43PM 43.7581 -84.6839 289° West 392 451 38,000  Level Minneapolis Center
03:44PM 43.7922 -84.8233 289° West 388 447 38,000  Level Minneapolis Center
03:45PM 43.8339 -84.9928 289° West 389 448 38,000  Level Minneapolis Center
03:46PM 43.8683 -85.1342 289° West 390 449 38,000  Level Minneapolis Center
03:47PM 43.9011 -85.2747 288° West 387 445 38,000  Level Minneapolis Center
03:48PM 43.9353 -85.4156 289° West 387 445 38,000  Level Minneapolis Center
03:49PM 43.9694 -85.5572 289° West 389 448 38,000  Level Minneapolis Center
03:50PM 44.0025 -85.6975 288° West 387 445 38,000  Level Minneapolis Center
03:51PM 44.0286 -85.8111 288° West 387 445 38,000  Level Minneapolis Center
03:52PM 44.0750 -86.0111 288° West 390 449 38,000  Level Minneapolis Center
03:53PM 44.1086 -86.1539 288° West 390 449 38,000  Level Minneapolis Center
03:54PM 44.1447 -86.3133 288° West 392 451 38,000  Level Minneapolis Center
03:55PM 44.1783 -86.4592 288° West 394 453 38,000  Level Minneapolis Center
03:56PM 44.2119 -86.6069 288° West 397 457 38,000  Level Minneapolis Center
03:57PM 44.2442 -86.7506 287° West 390 449 38,000  Level Minneapolis Center
03:58PM 44.2761 -86.8956 287° West 390 449 38,000  Level Minneapolis Center
03:59PM 44.3072 -87.0394 287° West 388 447 38,000  Level Minneapolis Center
04:00PM 44.3386 -87.1819 287° West 385 443 38,000  Level Minneapolis Center
04:01PM 44.3717 -87.3319 287° West 383 441 38,000  Level Minneapolis Center
04:03PM 44.4067 -87.4975 287° West 382 440 38,000  Level Minneapolis Center
04:04PM 44.4378 -87.6414 287° West 385 443 38,000  Level Minneapolis Center
04:05PM 44.4692 -87.7858 287° West 387 445 38,000  Level Minneapolis Center
04:06PM 44.4997 -87.9294 287° West 390 449 38,000  Level Minneapolis Center
04:07PM 44.5303 -88.0756 286° West 387 445 38,000  Level Minneapolis Center
04:08PM 44.5547 -88.1981 286° West 390 449 38,000  Level Minneapolis Center
04:09PM 44.5797 -88.4017 280° West 398 458 38,000  Level Minneapolis Center
04:10PM 44.5972 -88.5553 279° West 401 461 38,000  Level Minneapolis Center
04:11PM 44.6156 -88.7100 280° West 403 464 38,000  Level Minneapolis Center
04:12PM 44.6336 -88.8650 279° West 403 464 38,000  Level Minneapolis Center
04:13PM 44.6506 -89.0189 279° West 400 460 38,000  Level Minneapolis Center
04:14PM 44.6700 -89.1967 279° West 396 456 38,000  Level Minneapolis Center
04:15PM 44.6867 -89.3486 279° West 394 453 38,000  Level Minneapolis Center
04:16PM 44.7019 -89.4997 278° West 391 450 38,000 -60 Level Minneapolis Center
04:17PM 44.7183 -89.6500 279° West 390 449 37,900 -1,020 Descending Minneapolis Center
04:18PM 44.7347 -89.8022 279° West 393 452 35,900 -2,040 Descending Minneapolis Center
04:19PM 44.7503 -89.9592 278° West 401 461 33,700 -1,920 Descending Minneapolis Center
04:20PM 44.7675 -90.1339 278° West 391 450 32,000 -840 Descending Minneapolis Center
04:21PM 44.7808 -90.2547 279° West 381 438 32,000  Level Minneapolis Center
04:22PM 44.7981 -90.4272 278° West 382 440 32,000  Level Minneapolis Center
04:23PM 44.8119 -90.5617 278° West 381 438 32,000 -180 Level Minneapolis Center
04:24PM 44.8356 -90.7369 281° West 381 438 31,700 -1,200 Descending Minneapolis Center
04:25PM 44.8572 -90.8906 281° West 386 444 29,600 -1,980 Descending Minneapolis Center
04:26PM 44.8767 -91.0300 281° West 382 440 27,700 -1,680 Descending Minneapolis Center
04:27PM 44.8925 -91.1425 281° West 374 430 26,200 -1,800 Descending Minneapolis Center
04:28PM 44.9150 -91.3047 281° West 359 413 24,100 -1,740 Descending Minneapolis Center
04:29PM 44.9300 -91.4092 282° West 349 402 22,700 -1,860 Descending Minneapolis Center
04:30PM 44.9558 -91.5914 281° West 342 394 20,300 -2,040 Descending Minneapolis Center
04:31PM 44.9728 -91.7194 281° West 337 388 18,600 -1,620 Descending Minneapolis Center
04:32PM 44.9906 -91.8417 282° West 325 374 17,000 -1,620 Descending Minneapolis Center
04:33PM 45.0064 -91.9642 280° West 318 366 15,300 -1,620 Descending Minneapolis Center
04:34PM 45.0222 -92.0825 281° West 310 357 13,700 -1,740 Descending Minneapolis Center
04:36PM 45.0406 -92.2247 280° West 308 354 11,800 -1,320 Descending Minneapolis Center
04:37PM 45.0406 -92.3447 270° West 307 353 11,000 -420 Descending Minneapolis Center
04:38PM 44.9831 -92.4417 230° Southwest 331 381 11,000 -360 Level Minneapolis Center
04:39PM 44.9150 -92.5294 222° Southwest 332 382 10,300 -780 Descending Minneapolis Center
04:40PM 44.8589 -92.6128 226° Southwest 298 343 9,400 -1,140 Descending Minneapolis Center
04:41PM 44.8111 -92.6983 232° Southwest 279 321 8,000 -1,080 Descending Minneapolis Center
04:42PM 44.7600 -92.7992 235° Southwest 265 305 7,000 -1,020 Descending Minneapolis Center
04:43PM 44.7317 -92.9069 250° West 262 302 5,700 -960 Descending Minneapolis Center
04:44PM 44.7731 -92.9706 313° West 223 257 4,900 -1,020 Descending Minneapolis Center
04:45PM 44.8039 -93.0428 301° West 184 212 3,500 -1,020 Descending Minneapolis Center
04:46PM 44.8250 -93.0897 302° West 135 155 2,700 -780 Descending Minneapolis Center
04:48PM 44.8492 -93.1458 301° West 121 139 1,800 -780 Descending Minneapolis Center
04:49PM 44.8675 -93.1875 302° West 127 146 1,100 -720 Descending Minneapolis Center
04:51PM 44.8667 -93.2167 235° Southwest  Level FlightAware Approximate